TimeMST,TemperatureF,Dew PointF,Humidity,Sea Level PressureIn,VisibilityMPH,Wind Direction,Wind SpeedMPH,Gust SpeedMPH,PrecipitationIn,Events,Conditions,WindDirDegrees,DateUTC
12:54 AM,46.9,44.1,90,29.99,10.0,ESE,3.5,-,0.01,,Overcast,110,2013-01-26 07:54:00
1:54 AM,46.0,43.0,89,29.96,10.0,Calm,Calm,-,N/A,,Overcast,0,2013-01-26 08:54:00
2:54 AM,46.0,43.0,89,29.92,10.0,NNE,4.6,-,N/A,,Overcast,30,2013-01-26 09:54:00
3:54 AM,44.1,43.0,96,29.91,10.0,Calm,Calm,-,N/A,,Overcast,0,2013-01-26 10:54:00
4:54 AM,44.1,43.0,96,29.91,10.0,West,6.9,-,N/A,,Overcast,270,2013-01-26 11:54:00
5:54 AM,44.1,42.1,93,29.89,10.0,Calm,Calm,-,N/A,,Mostly Cloudy,0,2013-01-26 12:54:00
6:54 AM,42.1,41.0,96,29.89,2.5,Calm,Calm,-,N/A,,Mostly Cloudy,0,2013-01-26 13:54:00
7:09 AM,42.8,41.0,93,30.00,3.0,Calm,Calm,-,N/A,,Mostly Cloudy,0,2013-01-26 14:09:00
7:32 AM,42.8,41.0,93,30.00,1.2,Calm,Calm,-,N/A,,Scattered Clouds,0,2013-01-26 14:32:00
7:40 AM,41.0,39.2,93,30.00,0.8,Calm,Calm,-,N/A,,Scattered Clouds,0,2013-01-26 14:40:00
7:44 AM,42.8,41.0,93,30.00,2.0,Calm,Calm,-,N/A,,Scattered Clouds,0,2013-01-26 14:44:00
7:54 AM,42.1,41.0,96,29.90,3.0,Calm,Calm,-,N/A,,Mostly Cloudy,0,2013-01-26 14:54:00
8:54 AM,44.1,43.0,96,29.88,6.0,Calm,Calm,-,N/A,,Overcast,0,2013-01-26 15:54:00
9:54 AM,46.0,44.1,93,29.88,10.0,NW,3.5,-,N/A,,Overcast,310,2013-01-26 16:54:00
10:54 AM,46.9,44.1,90,29.87,10.0,NNW,5.8,-,0.01,Rain,Light Rain,330,2013-01-26 17:54:00
11:54 AM,48.0,45.0,89,29.85,10.0,North,5.8,-,0.01,,Mostly Cloudy,360,2013-01-26 18:54:00
12:54 PM,53.1,46.9,80,29.77,10.0,North,5.8,-,N/A,,Overcast,350,2013-01-26 19:54:00
1:37 PM,50.0,44.6,82,29.95,6.0,SSW,26.5,35.7,0.01,Rain-Thunderstorm,Rain,210,2013-01-26 20:37:00
1:52 PM,48.2,41.0,76,29.94,10.0,SW,18.4,28.8,0.01,Rain-Thunderstorm,Light Rain,230,2013-01-26 20:52:00
1:54 PM,48.9,42.1,77,29.82,10.0,SW,17.3,26.5,0.01,Rain-Thunderstorm,Light Rain,230,2013-01-26 20:54:00
2:07 PM,48.2,39.2,71,29.94,10.0,SSW,25.3,36.8,0.00,,Overcast,210,2013-01-26 21:07:00
2:54 PM,50.0,41.0,71,29.79,10.0,SW,15.0,-,0.00,,Mostly Cloudy,220,2013-01-26 21:54:00
3:54 PM,54.0,37.0,53,29.79,10.0,SW,21.9,32.2,N/A,,Partly Cloudy,220,2013-01-26 22:54:00
4:54 PM,51.1,37.9,61,29.80,10.0,SSW,15.0,28.8,N/A,,Scattered Clouds,210,2013-01-26 23:54:00
5:54 PM,48.9,37.9,66,29.81,10.0,SSW,12.7,-,N/A,,Scattered Clouds,200,2013-01-27 00:54:00
6:54 PM,48.9,37.9,66,29.84,10.0,SSW,11.5,23.0,N/A,,Overcast,210,2013-01-27 01:54:00
7:54 PM,46.9,37.9,71,29.86,10.0,Calm,Calm,-,N/A,,Overcast,0,2013-01-27 02:54:00
8:54 PM,46.9,39.0,74,29.86,10.0,West,6.9,-,N/A,,Overcast,260,2013-01-27 03:54:00
9:54 PM,46.0,37.9,73,29.86,10.0,WSW,10.4,-,N/A,,Partly Cloudy,250,2013-01-27 04:54:00
10:54 PM,46.9,37.0,68,29.86,10.0,WSW,13.8,-,N/A,,Scattered Clouds,250,2013-01-27 05:54:00
11:54 PM,45.0,36.0,71,29.88,10.0,WSW,9.2,-,N/A,,Overcast,250,2013-01-27 06:54:00